Theta_e
309 309 309 309 309 309 310 310 310 311 312 313 315 316 317 318 319 320 320 319 319 319 320 320 320 321 321 322 322 321 321 319 319 320 324 326 325 323 321 322 319 321 322 320 338 348 349 351 348 347 345 346 345 343 346 343 343 345 347 348 341 337 337 339 341 339 338 339 339 339 339 338 339 341 342 342 343 342 341 343 344 343 345 348 349 351 354 354
309 309 309 310 309 310 310 310 310 310 310 311 312 313 314 316 317 319 320 320 320 319 319 320 320 321 321 322 322 321 320 319 319 321 326 327 323 322 320 320 320 321 321 326 344 350 347 347 345 344 342 344 343 341 344 342 340 342 344 343 340 341 339 341 342 340 340 340 341 341 339 338 339 340 340 340 342 342 341 343 343 344 347 349 350 351 353 354
309 309 310 309 310 310 310 310 310 310 310 310 311 311 312 313 315 316 318 320 321 320 319 319 320 320 321 321 321 321 320 320 322 325 327 326 323 322 321 320 321 320 320 333 345 343 342 342 342 342 340 341 341 340 340 342 342 341 343 341 341 342 339 342 341 341 342 342 344 343 342 341 339 339 339 340 340 340 341 342 343 347 349 350 350 350 351 353
309 309 309 309 310 310 310 310 310 310 310 310 311 311 311 311 312 313 315 317 319 321 320 320 320 320 321 321 321 321 320 322 326 329 326 324 322 322 322 320 321 319 322 336 342 339 338 339 341 340 338 339 339 339 339 341 342 341 342 341 342 342 339 342 341 341 342 341 344 344 344 342 340 340 339 341 339 337 341 342 343 347 349 350 351 351 351 351
309 309 309 310 309 310 310 310 310 310 310 310 311 311 311 311 312 312 312 313 315 318 320 321 320 320 320 320 321 320 322 324 327 329 324 322 322 322 322 321 322 319 324 337 338 336 337 337 341 339 337 338 336 337 337 339 340 341 342 342 343 342 339 341 340 341 341 342 344 343 344 342 341 341 339 341 339 338 340 340 342 346 349 350 350 351 351 351
309 309 309 309 310 310 310 310 310 311 311 311 311 311 311 311 312 312 312 312 313 314 316 319 320 321 320 321 320 320 323 324 325 329 325 322 321 322 322 322 322 319 327 338 335 333 335 336 339 338 336 336 335 335 335 338 339 338 341 343 345 342 340 340 339 340 340 342 343 343 343 344 343 341 340 341 340 339 339 339 341 345 348 349 349 351 350 351
308 309 309 309 310 310 310 310 310 311 311 311 312 312 312 312 312 312 312 312 312 312 313 315 317 319 320 320 320 322 325 324 325 329 326 322 321 322 323 323 322 321 330 337 333 332 333 334 337 337 335 334 334 334 334 336 337 337 339 342 343 342 341 340 339 340 339 340 342 342 343 343 343 342 340 341 339 339 338 339 341 345 347 347 349 350 349 351
308 308 308 308 309 309 310 310 310 310 311 312 312 312 312 312 313 312 313 312 312 313 313 313 313 316 318 318 321 326 327 325 329 328 323 322 322 323 324 324 322 323 332 335 332 332 330 332 336 336 334 333 334 334 333 333 334 337 338 340 341 341 341 339 340 339 338 340 342 342 341 342 344 342 340 340 339 338 339 339 341 345 346 347 349 349 348 350
308 308 308 308 308 309 309 309 310 310 310 311 312 312 312 313 313 313 313 313 313 313 312 313 312 313 314 315 320 326 325 325 328 326 323 325 326 323 325 327 323 325 333 333 330 331 329 330 334 335 334 332 334 333 333 333 333 336 338 340 341 340 340 339 339 340 339 339 341 341 340 342 343 343 341 340 339 338 339 340 341 344 344 347 347 347 348 349
307 307 308 308 308 309 309 309 309 310 310 310 311 312 313 313 313 314 314 313 313 313 313 313 313 313 312 315 321 325 325 325 325 326 326 329 330 326 327 332 329 329 334 332 328 328 328 329 331 334 333 332 333 332 333 333 333 336 337 338 338 339 339 338 338 338 338 339 340 340 339 341 343 342 342 342 341 339 339 341 341 343 344 346 346 346 349 349
306 306 307 307 308 309 309 309 309 310 310 310 311 311 312 313 314 314 314 314 313 313 313 313 313 312 312 318 325 325 325 325 325 327 327 328 330 329 330 333 332 331 332 331 328 326 326 327 328 331 332 331 331 331 333 333 333 335 335 336 336 337 338 336 337 337 338 337 340 341 340 341 341 341 343 344 343 340 340 341 341 342 343 345 346 347 350 349
306 306 306 307 307 308 308 309 309 310 310 310 310 311 312 313 314 314 314 314 314 314 313 313 313 312 313 321 326 325 325 325 325 327 328 327 327 328 329 329 330 331 331 330 328 326 325 326 326 327 329 330 330 331 332 332 333 334 334 334 334 335 336 336 337 337 337 337 340 342 339 341 341 339 342 344 344 343 341 341 342 342 343 345 347 348 351 350
305 305 306 306 306 307 308 308 309 310 310 310 310 311 312 312 313 314 314 314 314 314 313 313 313 313 319 326 326 325 326 326 325 326 327 327 326 326 327 327 328 329 331 330 328 327 326 326 326 326 327 329 330 331 331 332 333 333 334 333 333 333 334 337 337 337 337 338 341 341 335 337 342 341 341 344 345 345 343 342 342 342 343 345 347 349 351 351
305 305 305 305 306 306 307 308 308 309 310 310 310 311 311 312 313 313 314 314 314 314 313 314 314 316 324 327 323 325 326 325 327 327 325 325 326 327 327 327 327 328 330 330 328 328 327 327 326 326 327 328 330 330 331 332 332 333 332 332 333 328 330 338 336 336 337 338 342 340 333 335 342 342 341 343 344 344 345 344 342 342 343 344 346 349 351 351
304 304 305 305 306 306 307 307 308 309 309 310 310 311 311 312 312 312 314 314 313 314 313 314 316 320 328 328 324 327 325 324 326 326 326 326 327 328 327 327 327 328 329 329 329 328 328 327 326 326 327 328 329 329 329 331 332 333 329 326 331 327 329 338 337 337 338 339 342 339 333 336 340 341 342 343 342 344 346 345 344 342 343 344 345 348 350 351
303 304 304 304 305 305 306 306 307 308 309 310 310 311 311 311 312 312 313 313 314 314 314 321 326 325 327 327 328 329 326 327 327 326 327 327 328 328 327 327 328 327 327 327 327 327 327 326 327 327 328 328 328 328 328 328 329 333 329 323 327 327 329 335 336 338 338 339 342 339 337 339 338 340 342 342 342 343 344 346 346 343 343 345 345 347 349 350
303 303 303 304 304 305 305 306 307 308 309 310 310 311 311 312 313 312 313 313 313 314 314 324 333 329 327 325 327 327 326 329 328 327 328 326 326 328 327 328 327 327 326 326 326 327 327 326 327 327 327 327 327 328 325 322 322 328 330 326 328 330 329 331 334 337 338 340 341 339 340 341 339 339 341 342 342 341 343 345 346 346 345 345 345 346 348 350
302 303 303 304 304 304 305 305 306 307 308 309 310 312 312 312 313 313 314 314 315 320 320 323 327 327 327 328 326 325 326 328 328 328 328 326 325 326 328 328 327 326 325 326 326 326 327 327 327 326 326 326 328 328 322 321 324 325 327 326 327 330 330 330 334 337 339 340 341 340 341 341 340 340 342 342 342 342 342 343 345 347 346 346 346 346 347 349
302 302 303 304 304 304 304 305 306 307 308 309 310 310 312 315 320 319 321 323 324 327 329 329 328 325 324 329 328 327 327 328 327 326 326 326 325 326 327 328 328 326 325 326 325 325 326 326 325 324 323 325 328 330 326 328 330 329 330 329 327 327 329 333 336 337 338 339 341 340 339 341 341 341 343 344 344 343 343 342 344 346 347 348 348 348 347 348
302 302 303 303 304 304 304 305 306 306 307 309 309 311 318 323 328 327 325 329 330 329 328 328 328 326 324 326 326 326 327 326 326 325 324 324 325 327 327 327 328 327 325 325 324 325 326 324 323 323 324 326 328 330 330 331 332 332 333 331 330 328 328 334 336 337 338 337 339 341 339 341 341 341 344 346 345 344 344 343 343 345 346 348 349 349 348 348
302 303 303 303 304 305 304 305 306 306 307 308 308 315 321 319 320 320 319 322 325 325 325 324 324 324 325 324 323 325 325 325 325 324 323 323 325 327 327 327 328 327 326 326 325 325 325 322 323 324 325 327 328 330 330 331 332 333 332 330 329 329 329 335 337 336 338 337 337 341 339 339 341 341 343 346 345 344 345 344 344 344 346 347 349 350 350 350
303 303 303 303 305 305 304 305 305 306 307 308 309 316 319 314 313 314 313 315 317 318 320 320 320 321 322 322 322 322 322 323 323 323 324 324 325 327 327 327 326 327 326 326 326 324 323 322 324 326 326 326 328 330 331 331 332 331 332 330 327 329 331 334 335 337 337 336 338 340 339 339 342 341 342 345 346 346 345 345 345 345 345 346 348 349 350 351
302 302 303 303 304 305 305 305 306 307 307 308 311 316 316 313 312 311 312 315 317 318 318 319 320 320 321 321 321 321 320 322 322 323 324 324 326 326 327 326 325 328 327 325 325 322 320 322 325 326 326 326 327 329 330 330 331 331 331 328 326 330 330 327 332 338 338 337 338 340 339 339 342 343 342 345 347 348 347 345 346 346 346 346 347 348 349 350
302 302 302 303 304 306 305 304 308 309 307 309 313 315 314 312 311 310 313 316 318 320 320 320 320 320 321 322 321 321 320 321 321 323 323 324 326 325 326 327 325 326 327 327 326 323 322 324 327 326 326 327 326 328 330 329 328 330 331 329 328 331 331 328 333 338 338 337 340 340 335 335 341 343 342 344 346 348 348 347 347 346 346 347 347 348 349 350
302 302 302 302 303 305 305 309 312 309 307 312 315 315 312 311 310 310 314 319 319 321 322 322 322 321 322 322 322 322 321 322 322 323 324 324 325 325 326 328 326 326 327 327 326 325 325 326 327 325 325 327 326 328 329 328 326 326 331 333 332 334 333 333 336 336 332 331 337 338 328 329 339 342 343 344 344 346 348 348 348 347 347 348 348 349 349 350
302 302 302 302 302 304 306 313 313 307 308 314 315 314 312 311 309 309 317 320 318 322 324 322 322 322 323 323 323 323 322 323 324 324 325 325 325 326 327 327 327 327 326 328 327 326 326 327 327 325 325 326 326 326 328 330 325 322 329 333 333 335 334 333 334 331 326 327 336 339 330 327 334 339 344 344 344 345 346 348 348 349 348 347 349 349 349 350
303 302 302 301 302 302 304 309 308 305 311 315 313 312 311 310 308 312 319 317 316 324 325 322 323 323 324 324 324 323 323 325 326 326 325 325 325 326 326 327 328 327 328 328 324 325 327 326 326 325 325 325 324 325 328 330 325 323 330 333 333 333 332 333 332 329 329 331 335 338 335 329 328 335 343 343 343 345 346 347 348 348 348 349 349 349 350 350
304 303 301 301 302 301 302 305 304 305 311 313 311 309 309 307 308 315 320 317 319 327 326 324 324 324 325 326 325 325 325 327 327 326 326 325 325 326 325 326 327 327 328 326 321 324 329 326 325 325 324 324 324 326 328 329 326 327 332 332 333 333 332 334 332 329 331 331 327 331 335 331 327 334 342 342 340 342 345 346 347 347 347 349 349 349 350 350
305 304 302 301 302 302 303 304 304 305 307 308 307 306 307 307 312 318 319 318 324 325 326 326 324 324 326 326 325 326 327 327 327 327 326 325 324 326 325 326 328 327 327 326 324 327 329 327 327 325 324 324 325 327 328 328 328 330 332 332 333 333 333 334 332 329 329 327 324 327 331 329 327 332 337 339 337 340 343 342 346 348 347 349 350 350 351 351
306 305 303 302 302 303 304 305 307 307 306 305 305 305 307 311 317 318 315 318 323 324 325 325 325 325 326 326 326 327 327 327 327 327 326 326 325 325 326 325 326 327 328 327 327 328 329 328 327 326 326 326 326 327 327 328 329 329 330 330 331 332 333 333 332 329 325 323 324 327 328 328 326 329 333 337 338 339 343 343 345 348 348 349 350 351 350 350
306 306 305 303 302 302 302 306 311 311 308 304 304 306 309 315 319 316 316 321 322 323 326 324 325 326 325 326 325 326 326 326 328 327 326 326 325 324 325 326 326 325 326 326 325 327 328 327 326 326 326 326 326 326 327 329 328 328 330 328 326 326 328 328 326 327 322 321 325 327 330 328 324 328 334 340 341 340 342 344 344 345 347 347 347 350 349 348
306 306 306 304 303 302 302 306 309 309 307 304 304 309 312 315 316 314 318 321 319 322 326 324 325 326 326 326 326 327 326 325 327 327 325 325 324 324 324 326 326 322 320 322 323 325 327 327 327 327 327 327 325 323 324 327 327 328 328 325 321 320 322 322 321 322 320 321 326 329 329 327 325 331 338 341 340 340 341 342 342 341 343 345 345 347 347 347
305 305 306 306 304 304 304 305 305 305 304 304 306 312 313 313 315 316 317 319 319 323 325 324 325 326 326 325 325 327 327 326 327 327 326 326 324 325 325 326 327 323 320 322 322 321 323 325 326 326 326 326 325 322 320 322 325 326 324 321 319 318 320 321 320 321 321 321 325 328 328 325 325 332 340 341 339 340 341 341 341 339 340 342 341 346 348 348
304 304 306 307 305 305 304 304 305 305 304 306 310 312 312 312 315 317 318 319 322 324 325 324 325 325 325 325 325 326 326 325 327 327 327 327 325 324 325 325 326 325 324 323 321 321 319 320 324 325 325 326 325 324 322 324 325 325 327 326 321 319 320 321 320 320 321 321 323 326 327 323 324 332 339 339 339 341 341 341 341 339 339 339 340 346 348 347
303 304 304 307 308 309 309 308 309 308 307 310 313 311 311 312 314 315 318 320 322 323 324 325 326 324 324 325 325 325 325 324 325 327 327 327 325 324 325 325 325 325 324 320 321 323 319 319 325 326 327 327 325 325 326 325 323 325 329 326 321 324 324 321 321 321 321 321 322 323 325 327 331 337 339 338 339 340 340 340 340 339 339 338 339 344 346 344
303 303 305 308 311 312 314 313 312 311 311 314 312 309 311 313 314 317 319 321 322 323 322 322 324 322 320 323 324 325 325 324 325 325 325 327 326 326 326 326 325 325 324 322 323 323 318 320 328 328 327 327 325 325 326 324 322 324 325 322 325 330 329 321 320 323 322 320 322 322 323 328 331 334 337 338 338 339 339 339 339 339 339 338 338 340 344 345
302 304 307 310 310 313 316 315 313 314 315 315 311 311 312 313 316 318 319 321 321 322 322 319 320 320 318 319 322 324 325 324 324 324 323 324 325 326 327 327 326 326 326 326 324 325 322 320 328 329 326 328 327 326 326 325 325 324 321 323 328 330 329 325 320 321 321 319 321 321 320 323 323 326 335 339 338 338 338 338 338 339 337 338 339 338 343 347
303 306 309 311 312 316 317 314 314 316 317 315 312 314 313 313 316 317 318 320 320 322 322 318 319 322 319 318 320 324 325 322 322 323 322 323 324 326 328 327 327 326 326 327 325 327 325 319 325 330 327 328 329 326 323 325 327 325 323 327 327 321 321 323 320 320 320 319 321 320 320 322 321 325 334 338 338 338 339 339 337 337 337 337 339 337 341 346
307 309 311 313 315 315 313 310 313 318 318 315 314 314 313 314 315 316 317 318 318 320 322 320 320 321 320 320 320 323 325 322 323 323 321 323 323 326 328 327 327 327 326 327 325 327 328 321 320 328 329 327 327 324 320 321 324 325 325 328 327 323 321 322 322 321 320 319 320 320 320 321 325 331 335 337 338 338 339 339 338 337 337 337 338 338 339 345
310 309 310 315 316 313 310 310 313 316 316 317 316 315 315 314 315 316 316 316 317 317 320 321 321 320 321 321 321 322 323 323 324 323 322 323 323 325 328 327 327 328 327 327 326 326 329 324 319 325 328 325 323 324 322 321 323 322 320 321 323 324 324 323 323 321 320 320 319 320 320 321 328 336 337 337 339 338 338 339 337 337 337 337 337 337 337 343
309 309 311 314 315 313 312 311 312 313 314 316 316 316 317 316 315 316 316 316 316 316 318 319 319 320 320 321 321 322 323 323 323 323 323 324 323 324 327 327 327 328 327 327 327 326 327 325 321 321 322 320 321 326 326 325 325 323 320 320 321 323 322 319 320 322 321 320 319 321 319 322 331 337 336 337 338 337 337 338 337 337 337 336 337 337 337 340
308 310 311 312 312 311 311 310 311 312 312 314 315 316 317 317 317 317 316 317 316 316 317 316 316 318 319 320 322 322 323 323 323 323 323 324 324 325 327 328 328 328 328 328 327 327 327 327 323 320 321 323 325 327 326 325 327 326 324 324 324 324 321 317 317 319 320 320 321 321 319 323 334 338 336 337 337 336 338 337 337 337 337 336 335 336 335 339
309 310 310 309 308 308 308 309 311 312 311 313 314 315 317 318 317 317 316 317 316 315 316 315 315 316 317 319 320 321 322 322 323 324 324 324 326 326 328 328 328 328 328 328 327 328 328 326 322 320 324 326 326 327 327 327 327 324 324 325 324 323 323 323 323 322 321 319 320 320 318 324 333 339 337 337 337 338 337 337 338 337 336 336 335 336 337 340
308 309 309 308 308 310 309 309 311 312 312 313 313 313 315 316 317 317 317 316 316 315 315 315 316 316 316 317 318 320 321 320 322 324 324 324 325 326 327 327 327 327 327 329 330 328 326 325 323 320 321 323 322 323 323 324 324 323 324 326 325 325 326 325 325 325 322 319 320 320 318 323 333 339 338 336 338 337 336 336 337 336 337 336 335 336 335 338
307 308 309 309 310 312 311 311 312 313 313 314 314 314 314 315 316 316 316 316 316 316 315 315 316 316 316 316 317 318 319 319 320 323 323 324 324 325 326 327 326 326 328 331 332 330 326 327 326 321 319 319 318 319 320 321 323 323 324 325 325 326 325 322 320 320 319 321 323 321 319 324 334 339 337 336 336 336 337 337 336 336 337 335 335 338 338 340
307 307 309 310 311 312 312 313 314 313 313 314 315 315 315 315 317 317 316 316 317 317 316 316 316 316 316 316 316 317 318 318 319 321 322 323 324 324 325 326 325 326 331 330 330 330 329 329 329 325 322 321 321 323 327 325 322 320 321 323 324 325 326 323 319 317 319 321 322 324 325 325 331 336 336 337 336 336 337 337 335 336 335 334 338 345 348 350
307 307 308 310 310 311 312 313 313 312 312 312 313 315 315 315 317 317 318 317 317 317 317 316 316 316 315 316 316 316 317 318 318 320 321 321 322 323 323 323 323 328 332 329 327 331 329 327 329 329 327 327 327 329 329 328 325 322 322 323 323 325 325 323 319 319 323 319 317 326 331 326 328 335 336 336 336 337 337 336 336 336 334 334 340 347 353 358
306 307 308 308 308 309 310 311 311 310 309 309 309 311 313 314 314 315 316 317 318 318 317 316 317 316 317 316 316 316 317 318 318 319 320 320 321 322 322 322 322 328 331 326 325 330 329 326 328 327 327 328 330 330 329 329 327 326 325 324 324 324 323 321 321 323 326 321 318 327 331 328 330 334 334 335 336 337 337 337 336 336 335 334 337 342 349 355
307 307 307 307 307 308 308 309 309 308 306 306 307 309 311 312 312 314 315 315 316 318 317 317 316 316 317 317 317 318 318 316 316 319 320 320 320 321 322 321 322 325 326 324 326 329 328 328 330 329 326 327 329 329 329 328 327 327 327 327 326 326 324 323 323 324 326 324 324 329 330 329 332 332 332 334 335 336 336 336 335 335 335 335 334 336 338 341
307 307 307 307 307 308 308 308 308 307 305 305 307 308 309 310 310 311 313 314 314 316 318 319 318 317 318 319 318 319 319 318 318 319 320 320 320 321 322 323 323 324 325 325 327 328 327 328 333 332 326 326 330 330 329 328 327 325 326 328 328 327 326 325 324 325 324 324 326 328 327 329 332 332 333 334 334 336 336 337 336 334 335 336 334 335 334 333
306 307 307 306 306 307 308 309 309 307 307 307 307 308 309 309 309 310 312 313 313 314 316 315 315 316 318 320 321 319 320 321 321 321 322 322 321 322 322 323 324 324 325 325 327 328 329 329 331 331 325 325 329 330 329 329 327 324 324 326 327 326 325 326 326 326 325 324 325 323 322 326 330 331 333 334 334 336 334 336 338 335 335 335 334 335 333 332
305 306 307 306 306 307 307 308 308 308 308 308 308 308 309 309 310 311 311 312 313 313 314 314 313 314 317 320 322 320 320 321 321 321 324 324 324 325 324 324 325 324 325 325 325 328 330 329 329 329 325 324 327 329 328 327 325 322 324 326 327 327 327 327 327 328 327 325 324 322 322 328 331 330 331 332 333 335 335 335 336 335 337 336 334 335 334 331
Wind_Speed
15 15 15 15 16 16 16 16 17 17 17 17 17 17 17 17 16 16 15 14 15 15 16 15 15 15 15 17 17 19 21 20 18 18 17 14 11 13 14 13 12 11 9 10 13 15 16 16 16 15 13 12 12 11 9 7 6 6 3 2 5 3 3 3 4 4 5 9 9 10 8 9 10 8 10 9 11 13 11 11 11 8 10 14 20 26 27 26
15 15 15 15 15 15 16 16 16 17 17 17 17 18 17 17 17 17 16 16 15 16 16 16 16 16 16 18 18 21 23 22 21 19 16 15 13 11 12 12 13 13 12 12 17 18 17 17 16 15 13 12 12 11 8 8 7 6 4 2 4 3 4 3 4 5 5 8 10 10 8 9 9 10 10 10 11 13 11 13 12 10 14 18 24 27 27 26
14 15 15 15 15 15 15 16 16 17 17 17 18 18 18 18 18 18 17 17 16 16 16 16 16 17 17 18 19 21 23 25 23 15 12 11 7 7 8 10 13 15 14 14 16 17 16 15 15 14 14 12 11 10 7 8 7 6 4 1 6 6 2 4 3 5 5 7 10 9 8 8 10 10 9 9 12 11 10 13 13 13 18 21 26 27 27 27
14 15 14 15 15 15 15 16 16 17 17 17 17 18 18 18 18 18 18 18 17 17 17 16 17 17 17 18 19 20 24 25 13 4 8 9 2 3 4 5 11 16 16 14 15 16 15 14 14 15 14 12 12 10 8 9 7 7 4 3 9 6 0 4 3 5 7 7 9 9 7 8 10 10 8 9 10 8 10 14 15 16 20 24 26 27 27 26
14 15 15 15 15 15 15 16 16 17 17 17 18 18 18 18 18 18 18 18 17 17 17 16 17 17 17 18 18 20 20 13 2 8 5 6 4 7 4 2 6 14 17 15 15 16 15 16 15 16 15 12 12 11 10 12 9 7 7 11 15 5 1 3 4 4 6 6 9 9 7 8 10 10 8 9 7 6 11 14 16 18 22 25 26 27 26 26
15 15 16 16 16 16 15 16 16 17 17 17 18 18 18 19 19 19 18 18 17 17 17 16 16 16 17 17 18 19 14 7 1 4 5 7 12 11 6 2 4 11 17 16 16 17 17 18 17 16 15 12 12 11 11 14 12 8 8 14 15 5 1 2 3 5 5 5 8 8 8 9 9 9 9 9 4 4 12 15 16 20 23 25 26 26 26 26
15 15 16 16 16 16 16 16 17 17 17 18 18 19 19 19 19 19 18 18 18 17 17 16 16 16 16 16 17 16 14 15 9 8 10 14 13 8 5 3 5 11 17 18 17 18 18 19 19 18 15 11 13 13 12 14 15 10 6 9 10 6 5 2 3 6 5 5 8 8 9 10 9 9 10 10 6 5 11 15 16 20 22 24 26 26 26 26
16 16 16 17 17 17 16 17 17 17 18 18 19 19 20 20 20 19 19 18 18 18 17 16 15 15 15 14 14 14 16 14 6 6 10 11 7 4 4 4 6 12 17 19 19 19 19 21 22 19 14 12 13 13 13 13 12 12 9 7 8 8 8 6 7 6 6 6 8 9 9 10 9 8 10 11 10 6 10 16 18 20 22 24 25 25 26 26
15 16 17 17 18 17 17 17 18 18 18 18 19 19 20 20 20 20 19 19 18 18 17 16 16 15 15 13 13 13 12 5 1 4 6 5 5 4 3 4 6 12 17 19 19 20 19 21 22 20 15 14 15 15 14 12 9 12 12 11 10 9 10 10 10 8 7 7 9 11 9 11 10 9 9 11 11 9 11 17 19 21 22 23 24 24 25 26
17 17 17 18 18 18 17 18 18 18 18 18 18 19 20 21 21 20 19 19 18 18 17 16 15 14 13 12 12 10 6 4 4 5 5 5 5 4 3 5 8 12 17 18 19 21 21 20 20 20 18 16 16 16 14 12 11 11 10 12 12 11 13 11 9 9 8 8 11 11 8 11 13 8 8 12 13 11 13 17 19 21 22 23 23 24 25 25
18 18 18 18 19 19 18 18 18 18 18 19 19 19 20 20 20 20 19 19 19 18 17 16 15 14 12 10 13 11 5 6 6 5 7 8 8 6 6 9 10 14 17 18 19 21 22 20 18 17 15 15 16 16 16 16 14 10 7 10 11 11 12 9 7 9 9 9 12 12 9 12 14 9 8 14 15 13 15 17 19 21 22 23 22 24 24 24
20 19 19 19 20 20 19 19 19 18 19 19 19 19 19 20 19 19 19 19 19 18 17 16 14 13 10 11 19 17 9 9 8 8 9 9 10 10 10 11 12 15 17 18 19 19 21 21 19 18 15 14 14 13 13 16 18 13 10 10 10 11 10 10 11 10 9 9 14 12 9 11 12 9 10 17 17 15 17 17 19 20 21 22 23 24 24 24
20 19 20 20 20 20 20 20 20 19 19 19 19 19 20 20 19 18 18 18 18 18 17 15 13 11 8 13 18 15 11 12 12 11 12 11 12 13 13 13 14 15 17 18 18 18 20 20 20 22 20 17 14 12 9 11 18 15 12 10 9 10 9 12 12 11 10 11 16 13 7 8 11 11 12 19 19 17 18 18 19 19 20 22 23 24 23 23
19 19 19 20 21 21 20 20 21 21 20 19 19 19 19 19 18 18 17 18 18 18 17 14 11 8 9 16 16 12 13 13 13 14 13 13 13 14 14 14 15 15 16 18 17 17 18 19 20 22 23 21 17 16 11 10 13 12 11 10 8 9 7 11 11 11 11 12 17 15 6 7 12 15 16 19 20 19 18 19 19 19 20 22 23 23 23 24
19 18 19 20 20 20 20 20 20 21 20 20 20 20 20 19 18 17 17 17 17 17 16 12 10 6 11 20 17 13 13 11 14 16 13 13 12 13 14 15 15 15 14 16 17 16 16 18 22 20 20 21 19 16 11 9 10 9 11 9 9 9 6 10 11 11 11 12 16 15 6 6 11 16 18 19 20 20 19 19 20 19 20 21 22 23 23 24
20 19 18 19 19 20 20 20 20 20 20 20 20 20 20 19 18 17 17 17 17 16 12 8 7 6 10 12 8 11 9 7 12 13 12 12 11 11 13 14 14 13 13 14 15 15 16 18 20 20 17 17 16 13 9 8 10 10 10 9 10 10 6 8 10 12 13 11 15 15 7 5 8 16 20 20 20 20 19 19 20 20 21 22 22 22 22 23
22 20 20 19 19 20 19 19 19 19 19 18 19 19 18 19 18 17 17 16 15 13 9 5 3 7 13 9 6 10 10 9 9 12 12 9 9 9 11 15 14 13 13 13 13 13 15 17 16 15 16 14 12 12 10 10 10 10 10 10 10 11 9 8 9 12 14 12 13 14 11 7 7 16 19 19 20 20 19 19 20 20 20 21 22 22 23 23
23 22 22 21 21 21 20 20 19 19 18 17 18 18 17 17 16 17 18 15 11 8 9 9 6 6 12 13 13 12 11 12 12 13 12 8 9 9 12 16 14 14 14 14 15 15 16 17 14 11 13 13 12 13 12 12 12 11 12 9 10 13 12 11 10 12 15 13 12 14 13 9 7 14 16 17 19 19 18 18 20 21 20 21 22 22 23 24
24 23 23 22 22 21 20 20 19 18 18 16 15 16 16 14 14 15 13 10 8 6 6 8 14 8 6 4 11 9 8 13 13 12 11 10 9 10 14 15 14 17 15 12 15 18 16 14 14 12 12 14 16 17 16 17 17 15 14 12 11 12 11 12 11 13 15 13 13 14 13 11 9 12 14 15 17 17 17 17 18 20 21 21 22 22 23 24
24 24 23 23 22 22 21 20 19 18 17 15 12 12 12 10 9 6 4 10 17 17 16 11 16 18 16 8 8 8 9 13 14 12 12 12 10 12 17 17 16 17 14 11 13 18 17 12 12 14 15 19 21 21 20 20 20 17 15 13 13 13 10 12 13 14 15 13 12 14 13 13 12 12 13 14 15 15 16 16 17 18 20 21 22 23 23 24
24 23 23 24 22 21 21 19 18 16 14 13 10 9 10 8 6 6 8 14 22 23 27 25 21 24 24 18 12 11 13 14 17 16 13 13 15 14 17 18 16 13 14 15 13 16 17 12 15 18 19 21 21 22 22 22 22 19 15 12 13 13 11 12 14 16 16 13 11 13 14 15 15 13 14 15 15 14 16 16 17 18 19 21 22 23 23 23
24 23 24 24 23 22 19 19 18 13 11 10 9 8 7 7 5 8 12 16 22 24 27 29 28 28 26 23 19 15 15 16 17 17 13 15 18 15 16 18 15 11 14 16 12 13 14 13 18 20 20 20 20 22 23 23 23 18 14 12 11 11 11 12 13 18 15 10 9 13 14 14 15 14 13 15 15 14 17 17 17 19 19 20 22 23 23 23
23 24 24 24 24 21 19 19 15 9 9 10 9 8 5 5 6 9 11 14 21 24 25 27 29 28 26 24 21 19 20 19 17 18 18 18 20 20 17 15 15 14 15 16 14 12 11 14 19 20 19 21 22 23 24 22 18 16 14 12 10 12 12 10 9 15 14 9 9 12 13 11 13 14 13 16 17 17 18 18 18 19 19 20 21 22 24 25
23 24 24 24 24 21 19 16 9 8 12 11 9 7 5 6 8 11 12 13 15 18 22 26 25 25 25 20 17 21 23 22 19 19 21 23 23 21 17 16 16 15 14 18 20 16 13 14 19 21 20 22 23 22 22 18 14 17 18 14 12 14 15 11 8 11 10 11 11 11 10 9 11 14 14 15 17 18 19 19 19 20 20 20 21 22 24 26
22 24 24 24 23 21 17 10 5 9 11 8 6 5 5 9 10 12 11 10 11 11 14 19 19 19 19 14 14 20 19 20 21 19 21 27 26 19 16 17 15 14 17 21 20 17 15 15 18 21 20 22 23 20 21 18 13 16 20 19 17 16 17 15 12 12 8 10 13 13 9 7 12 16 14 13 15 17 18 18 19 20 21 21 22 23 24 25
21 22 24 24 23 22 14 4 5 11 7 4 3 3 8 11 11 10 6 7 8 4 7 13 15 13 15 16 16 18 14 16 22 19 19 26 27 20 15 14 12 14 17 17 14 11 12 16 18 20 22 23 22 19 21 21 14 13 17 21 22 18 17 18 15 13 9 9 13 15 11 7 10 14 15 15 15 16 17 17 18 21 22 23 24 25 25 26
21 20 22 23 22 22 16 8 10 10 6 4 4 6 10 10 9 8 4 7 7 6 9 9 10 10 14 16 20 17 6 8 18 19 21 24 27 24 16 13 12 13 14 12 10 9 12 19 19 20 22 21 18 17 20 21 15 12 16 21 23 22 20 19 16 12 9 9 11 15 14 10 8 11 15 17 17 17 18 17 17 20 23 25 25 26 27 28
22 19 20 22 19 18 18 16 14 10 7 8 9 10 9 8 8 6 5 6 2 7 9 7 7 8 11 14 23 18 4 9 13 17 22 23 25 24 17 16 14 13 16 13 10 11 14 20 21 20 18 16 17 18 20 21 17 14 17 19 20 21 21 20 17 11 10 10 10 14 15 10 8 10 12 16 18 18 18 18 18 20 24 26 26 28 29 29
24 20 19 22 19 16 16 16 14 11 9 9 9 8 7 9 8 5 6 6 2 4 7 9 9 10 12 14 21 21 9 8 8 12 22 22 24 22 15 17 17 14 17 17 13 12 13 18 21 18 16 15 16 17 20 21 17 16 19 19 17 18 19 19 16 11 11 12 12 15 16 10 9 10 11 14 16 16 17 16 17 20 22 22 23 27 29 29
24 21 19 21 20 16 15 16 14 10 7 7 7 6 6 8 6 7 8 5 4 5 9 10 10 13 16 14 15 19 15 13 8 13 19 20 23 24 17 17 18 13 14 17 17 15 12 17 19 16 15 15 16 17 20 22 19 16 18 18 17 17 16 15 14 11 11 12 14 18 19 14 11 10 11 12 13 14 14 12 13 17 19 20 22 24 26 27
25 22 19 20 20 18 16 13 9 8 9 8 6 5 6 6 5 9 9 2 4 6 11 10 11 15 18 16 13 16 16 14 12 14 14 15 18 20 16 14 14 11 12 13 15 16 16 15 13 15 18 17 17 18 20 22 21 18 15 14 15 13 11 10 11 12 13 12 14 19 23 20 14 10 11 14 16 16 14 11 13 15 18 21 23 24 26 28
26 24 20 18 18 19 18 12 9 15 15 9 6 7 6 7 8 10 8 1 1 7 10 11 14 14 18 18 13 15 16 14 14 15 14 13 13 15 15 12 10 11 12 11 12 14 16 15 12 14 20 21 18 15 16 18 18 17 14 13 14 11 9 10 11 12 13 12 14 18 20 19 14 11 13 15 16 16 15 15 17 18 21 24 25 25 25 27
26 26 22 17 16 19 20 15 13 18 16 8 7 8 7 9 10 11 11 6 2 5 5 10 14 15 17 17 13 14 15 13 15 16 15 15 13 15 18 17 15 13 11 11 12 12 12 16 18 16 16 20 20 14 13 14 15 17 15 13 14 12 11 12 12 12 13 13 16 18 16 14 12 13 16 18 16 15 17 21 22 20 20 24 24 22 20 21
27 26 23 18 15 16 18 16 13 14 11 8 8 9 11 13 10 9 12 14 8 2 3 7 13 16 16 15 12 13 13 12 15 16 15 16 13 13 17 20 22 17 11 11 11 11 12 13 18 18 12 16 22 19 15 14 15 17 16 15 15 12 11 12 11 12 12 12 16 18 14 11 10 10 15 18 18 17 16 20 24 20 18 17 17 19 20 21
27 25 23 18 13 13 14 14 11 9 7 10 10 10 14 13 9 10 11 12 12 10 8 8 10 13 14 14 13 15 14 12 15 17 14 15 14 13 14 17 22 20 12 11 9 10 14 11 14 20 17 17 21 21 19 17 14 13 14 15 15 13 12 11 12 13 13 12 13 13 11 10 10 10 11 12 16 18 17 19 22 21 19 17 14 18 22 22
28 25 21 15 11 10 11 10 7 6 10 12 11 12 14 12 9 9 8 8 12 13 11 10 11 12 12 11 13 18 16 12 14 14 13 15 16 16 16 14 20 22 16 11 8 8 12 10 12 20 21 20 20 20 21 19 12 10 13 16 15 16 15 12 13 14 14 14 12 11 11 11 13 13 12 12 13 15 17 18 20 22 22 18 15 17 19 21
27 25 21 15 11 9 10 8 4 6 12 13 13 13 12 12 13 12 10 9 11 12 13 11 10 12 13 10 12 17 17 12 14 12 11 14 15 17 18 15 19 24 21 15 10 8 9 8 12 19 20 22 22 20 22 23 18 11 12 16 16 16 17 12 11 12 14 14 11 14 17 14 13 10 11 17 18 15 16 17 19 21 20 17 16 17 20 24
25 24 24 15 7 8 9 6 3 8 13 12 15 17 13 12 16 16 16 16 12 10 13 12 9 11 13 12 11 16 17 14 13 12 11 12 11 15 19 16 17 23 25 21 12 8 9 8 10 18 19 19 20 18 17 21 26 20 13 14 14 14 15 13 11 12 15 13 10 15 20 16 13 10 11 17 20 18 18 19 20 19 18 18 19 19 20 24
21 20 18 4 7 7 7 6 5 11 13 11 13 14 12 14 18 20 21 19 16 12 12 13 12 11 13 14 12 14 17 15 13 13 11 9 9 15 19 16 16 20 24 23 14 8 9 7 7 13 16 15 14 14 13 15 22 23 18 14 13 12 13 13 13 11 12 13 11 14 17 13 12 12 13 16 18 19 21 21 20 18 19 21 21 20 19 20
16 15 11 4 6 6 7 7 9 12 11 11 13 12 12 15 19 25 27 22 16 13 12 13 14 12 12 15 15 13 15 16 16 13 11 11 11 13 17 16 16 19 22 23 18 11 9 7 7 10 15 14 11 13 16 15 16 18 18 16 13 11 12 14 14 12 12 13 11 12 13 11 10 11 14 16 16 17 18 20 18 17 22 23 19 19 19 19
14 12 8 5 4 5 7 9 11 11 10 11 14 14 15 15 15 21 28 28 22 17 16 15 15 14 13 14 14 13 12 14 16 13 10 14 13 9 12 15 15 16 18 19 17 13 9 7 8 9 11 13 14 16 19 19 17 16 16 16 16 13 12 13 14 14 15 13 11 11 12 11 9 11 13 14 14 14 15 18 17 20 23 21 17 19 21 20
14 10 8 5 5 9 11 10 10 11 10 12 15 16 17 17 16 18 22 25 23 20 18 17 16 16 15 14 14 13 13 12 12 14 12 14 15 11 12 18 19 17 15 13 15 15 11 7 9 10 10 12 16 18 20 21 22 19 16 17 18 15 13 12 12 13 14 14 15 14 13 11 9 11 11 11 13 16 17 16 14 16 19 16 16 20 20 23
14 15 17 17 16 16 14 10 10 11 11 14 19 22 21 17 16 18 19 19 18 16 16 16 17 18 16 16 16 14 15 14 11 14 14 13 15 13 11 16 20 18 14 12 14 16 12 9 9 10 10 11 15 17 18 21 21 18 16 18 18 18 18 14 11 12 12 16 17 14 13 13 10 10 9 8 12 17 19 18 16 16 18 18 21 22 14 19
18 21 25 23 15 14 13 9 9 10 12 16 20 21 23 21 18 18 17 16 14 13 14 14 16 17 16 16 17 16 15 13 12 15 15 12 13 14 14 14 14 15 13 8 8 13 12 9 10 10 9 10 12 13 14 18 17 13 15 18 19 23 27 21 14 13 12 17 19 15 13 12 10 13 13 11 13 15 17 19 21 23 21 20 24 19 9 12
18 18 21 20 14 16 15 12 11 11 12 17 19 19 19 18 20 23 20 17 17 16 14 15 17 17 17 17 18 18 18 15 12 13 14 14 12 13 16 15 12 16 12 1 4 9 13 10 10 11 11 12 12 11 11 13 13 12 16 21 23 27 30 22 14 14 13 14 18 16 13 11 12 16 18 17 15 14 14 18 21 23 22 22 24 14 13 14
14 11 12 13 13 17 18 17 17 14 11 13 15 17 18 15 17 23 23 20 20 20 17 16 18 18 18 20 19 19 21 20 16 12 12 14 11 10 14 15 16 17 5 6 5 9 9 10 14 15 13 12 12 11 11 11 13 15 18 23 24 25 26 20 14 15 14 12 14 15 14 14 15 16 18 19 17 13 13 14 15 17 20 24 21 11 14 16
11 8 9 9 8 10 13 15 12 8 10 13 10 10 16 15 13 15 18 18 20 23 18 16 18 18 18 20 19 18 20 21 20 18 15 15 12 12 16 19 21 15 3 1 8 8 6 11 17 20 19 18 16 15 14 15 17 19 20 22 24 24 26 23 18 18 16 13 14 15 15 18 19 18 19 19 18 16 14 14 16 17 19 20 15 12 14 16
10 11 15 13 9 8 9 10 9 9 13 15 9 9 13 13 12 13 13 14 18 21 18 15 20 21 20 19 16 16 19 19 19 20 18 15 14 13 15 20 22 16 10 11 14 8 7 11 15 18 20 22 22 21 19 17 18 20 19 20 22 24 26 26 23 23 20 16 15 15 18 20 20 23 24 19 16 17 18 20 23 23 20 18 14 14 17 18
13 14 16 15 12 12 13 16 15 12 12 12 9 10 12 12 13 13 11 12 14 15 14 14 20 21 21 22 17 14 16 16 17 18 17 17 17 14 12 16 19 18 15 15 13 10 9 9 12 16 17 20 23 23 23 22 19 20 21 22 23 24 26 26 25 25 25 23 21 20 19 19 19 21 24 24 24 22 19 23 27 26 23 21 20 19 20 19
15 12 12 13 13 15 17 18 15 10 9 10 9 10 11 13 14 13 12 11 11 12 12 12 13 14 15 19 20 18 16 16 17 16 16 17 16 14 12 11 13 17 18 15 13 14 12 9 11 14 13 15 19 20 23 24 22 22 23 23 24 24 24 25 25 24 24 23 24 24 22 18 16 17 19 23 29 29 23 20 22 24 25 23 22 24 23 20
18 13 12 12 10 11 14 14 12 9 8 9 9 10 12 13 13 10 10 12 15 14 9 14 16 16 16 17 18 20 17 14 14 15 17 18 15 13 14 12 12 15 17 15 14 14 12 10 12 12 12 13 16 19 22 23 23 25 25 25 26 23 22 22 21 21 22 21 22 24 21 15 14 16 16 17 23 27 25 22 21 22 23 22 21 22 23 20
19 14 12 11 9 9 10 11 11 11 9 9 12 13 13 12 11 9 9 10 15 15 9 12 15 13 12 14 10 10 16 17 17 20 17 12 11 12 12 13 14 15 13 14 14 12 12 10 10 11 11 12 16 20 21 20 18 19 21 24 26 24 24 24 21 21 23 21 18 17 16 14 14 16 18 18 19 21 23 27 29 26 23 23 22 21 23 22
Wind_Direction
320 319 318 318 318 317 317 316 315 314 313 312 312 311 311 310 311 311 310 307 302 301 303 305 308 309 312 317 321 325 326 323 317 308 289 273 265 256 252 255 245 233 230 208 190 189 194 204 206 206 212 203 212 228 209 214 250 267 243 169 267 281 96 115 106 83 112 117 126 147 151 133 139 137 127 144 139 136 151 143 134 132 133 138 139 143 148 149
321 320 320 319 319 318 318 316 315 314 312 311 310 309 308 307 308 307 307 306 303 301 300 303 304 305 308 312 318 322 321 319 311 292 265 257 267 262 255 251 233 220 213 198 191 195 198 201 203 202 210 213 212 215 204 201 210 244 255 163 256 302 80 114 105 103 126 122 128 147 151 137 141 140 149 168 146 144 156 142 142 138 130 134 139 145 150 153
322 321 320 319 319 319 318 317 316 314 313 312 310 308 307 306 305 304 304 303 303 301 299 299 301 304 305 308 315 318 321 317 303 278 238 231 248 248 251 251 224 214 211 202 198 201 205 204 201 201 212 225 213 202 203 191 191 232 258 220 257 289 71 127 109 114 119 123 135 144 149 139 136 145 167 169 145 155 163 148 152 144 139 143 145 149 153 157
322 321 320 319 318 318 318 317 316 314 314 312 311 309 308 307 304 304 302 301 301 299 299 297 298 302 302 308 312 317 322 312 294 197 188 193 213 272 259 258 219 211 205 200 206 207 213 210 202 208 218 233 219 206 213 191 189 213 211 257 246 260 346 135 140 136 124 136 141 140 154 143 139 151 171 165 149 167 167 157 162 153 150 151 150 153 157 160
320 319 318 317 317 317 317 316 315 315 314 312 311 309 308 307 305 304 302 302 300 299 298 296 297 298 301 305 308 317 319 309 124 123 179 198 308 315 302 294 220 206 195 196 212 209 215 213 205 215 224 239 231 215 218 203 213 218 181 238 245 237 5 121 153 155 126 146 145 145 158 137 146 159 169 172 169 179 165 160 163 158 156 156 156 157 159 164
318 317 316 315 315 315 314 314 313 313 312 311 310 309 308 306 305 305 304 304 302 299 297 296 297 295 299 302 306 313 305 300 68 176 239 278 295 303 305 278 197 192 189 198 214 210 213 213 207 216 223 235 239 229 223 205 215 237 187 219 244 251 284 98 152 166 140 166 155 152 150 138 161 164 168 181 170 152 153 155 158 157 160 161 161 161 162 167
317 316 315 314 313 313 313 311 310 310 310 309 308 307 306 305 304 304 305 306 303 302 300 297 297 293 296 298 302 302 277 278 277 231 262 286 280 282 294 252 185 176 189 206 213 210 212 213 211 217 223 228 239 238 238 222 208 230 234 215 233 235 225 232 210 171 163 200 158 157 159 153 177 163 169 183 145 122 144 149 153 154 162 164 163 165 167 169
317 316 315 314 313 313 312 311 309 308 308 306 306 305 304 303 302 304 305 306 304 303 302 300 298 293 294 295 297 291 272 273 262 230 266 271 251 248 283 270 202 175 193 213 211 212 213 215 216 217 227 230 238 237 237 242 214 218 248 240 228 223 223 239 241 187 178 213 160 168 177 160 178 161 172 182 140 140 153 146 151 154 162 167 167 170 169 171
318 316 316 315 314 313 312 311 309 307 307 305 304 302 303 302 301 304 304 304 304 303 303 302 299 294 292 291 286 281 273 265 205 273 266 231 226 257 278 263 219 185 199 215 213 217 217 219 220 218 233 237 240 243 235 240 224 211 221 232 233 228 232 230 234 208 188 211 173 178 187 161 172 159 169 181 143 150 162 147 152 157 164 169 170 173 171 173
321 318 317 316 314 313 312 311 309 308 307 304 303 301 301 301 301 303 303 303 302 302 303 301 299 294 291 288 277 271 261 240 254 262 222 194 226 253 220 208 216 203 207 216 216 220 219 222 224 224 240 248 244 247 241 238 238 224 214 231 230 229 236 223 229 220 194 205 183 182 190 162 171 169 172 175 149 154 162 153 158 161 167 171 172 175 174 176
323 320 318 318 315 313 313 311 309 308 307 305 304 301 300 300 301 303 303 303 300 301 303 301 299 293 286 273 259 259 269 264 251 230 213 203 211 218 203 201 212 213 213 219 219 220 223 225 228 230 237 246 251 254 248 245 256 257 242 249 237 232 241 228 237 229 204 199 182 186 199 172 173 184 181 166 155 163 167 161 165 166 168 173 174 174 175 179
324 322 319 319 317 315 315 312 310 308 306 305 303 302 301 300 301 301 302 301 300 301 300 301 298 289 281 257 250 257 270 267 252 236 229 219 218 221 218 217 218 217 217 222 223 222 225 227 229 234 233 236 243 251 252 240 246 254 247 256 246 233 235 229 231 223 212 188 173 189 204 183 180 192 182 163 159 169 172 167 170 172 171 173 175 174 177 182
326 324 322 321 318 316 316 314 312 310 307 305 303 302 299 300 301 300 300 299 299 299 300 303 295 286 270 253 257 263 264 258 252 241 230 228 234 233 229 227 222 222 222 224 227 224 225 227 229 234 237 239 234 239 271 248 235 240 239 247 247 232 218 217 221 214 210 171 169 195 209 190 189 203 189 163 166 176 174 173 174 176 173 175 178 176 179 185
328 325 323 321 319 318 317 315 313 311 310 307 304 302 300 301 300 298 298 296 297 297 300 302 293 280 247 259 272 264 258 257 245 234 230 231 236 235 228 221 218 220 222 225 231 228 226 226 228 234 237 241 245 243 259 254 233 232 234 236 240 244 215 197 202 205 197 157 173 199 216 207 190 196 188 165 173 181 176 177 178 179 177 178 180 179 182 186
330 328 325 322 321 320 319 317 314 312 311 309 306 304 302 301 300 298 295 292 294 295 298 300 293 268 251 273 278 253 256 258 233 224 221 222 227 228 217 210 211 212 217 223 227 229 226 221 222 230 233 236 247 251 246 240 232 224 230 229 221 239 222 179 181 196 188 159 185 203 220 221 181 179 178 169 180 181 179 183 181 182 181 180 183 183 185 187
333 332 328 326 324 323 322 319 315 313 311 309 306 305 304 303 301 296 292 289 288 288 293 302 303 277 267 282 260 226 239 232 215 204 199 207 214 218 205 200 202 203 211 213 216 222 218 216 218 225 231 228 231 242 243 234 227 216 225 232 217 218 214 180 171 191 192 169 190 206 226 239 168 165 170 173 184 182 183 186 184 186 183 182 186 187 189 188
336 335 332 330 327 326 326 321 318 315 312 310 307 304 304 303 301 298 292 284 281 281 278 267 273 262 257 256 225 226 221 199 184 175 183 194 206 214 195 192 196 193 197 198 203 211 206 208 213 219 228 226 217 221 230 229 219 209 215 231 230 217 205 188 176 194 195 176 191 205 221 242 165 157 166 177 186 184 187 188 187 190 187 185 188 191 191 190
336 335 333 331 329 329 329 324 321 318 315 314 309 307 306 303 302 296 287 280 276 277 270 245 219 247 252 237 237 241 208 184 174 173 185 193 206 217 195 192 193 184 187 190 196 201 198 203 210 214 219 220 217 213 218 225 220 214 211 215 232 226 207 191 179 190 195 185 193 203 216 229 165 151 168 180 188 189 190 191 190 192 191 189 192 195 194 192
335 334 333 331 329 331 330 326 323 320 319 317 312 310 306 301 296 284 274 264 236 232 264 210 190 229 297 231 222 232 185 172 176 180 196 205 210 210 200 199 194 187 191 188 190 196 194 198 209 216 214 210 214 214 216 224 227 227 221 213 222 229 217 197 179 178 192 197 199 202 214 218 180 162 173 182 191 195 194 194 194 194 193 193 195 199 198 197
334 333 332 330 328 330 331 328 325 324 322 322 327 323 311 303 289 275 257 240 233 245 273 250 211 242 278 271 222 208 184 183 193 210 225 219 208 202 199 201 198 194 202 198 185 190 195 202 211 213 215 212 212 217 220 226 232 235 230 222 221 230 225 205 185 172 188 206 207 204 211 219 205 181 177 186 192 195 200 199 196 196 196 196 199 201 201 201
333 333 332 330 327 329 332 329 326 326 324 329 344 338 335 343 322 325 331 275 253 253 263 263 249 250 258 258 248 224 213 214 216 228 235 210 199 201 195 197 203 199 206 208 192 188 198 212 217 214 218 217 213 217 221 225 233 237 237 231 224 229 231 216 189 169 184 206 209 207 211 218 218 199 181 188 196 196 201 201 199 201 200 199 202 204 203 202
332 332 332 330 327 329 333 331 327 323 323 333 337 326 340 357 329 318 321 291 273 266 259 258 255 251 250 249 247 239 234 237 228 224 217 196 196 200 190 194 209 206 202 209 198 190 204 219 218 213 217 221 218 218 221 225 230 235 238 233 227 225 229 230 198 169 177 204 208 211 216 214 215 214 197 190 197 203 204 203 202 204 204 203 202 204 206 204
332 331 332 331 328 330 335 333 328 324 329 335 323 309 310 317 317 320 307 284 282 276 256 247 245 243 243 241 236 229 230 235 231 221 207 195 200 205 198 197 211 213 203 206 207 199 206 216 216 214 214 219 222 219 219 224 228 232 234 231 232 225 221 229 199 166 168 195 214 215 221 219 210 215 214 201 199 203 208 209 207 205 207 209 207 205 206 206
331 331 332 333 329 330 337 337 339 345 336 329 311 282 272 305 320 329 310 278 275 272 248 236 233 235 235 233 223 213 221 229 230 224 205 196 203 208 210 207 210 218 211 207 213 216 219 212 209 215 214 216 222 220 217 221 224 229 233 230 230 226 226 225 179 158 176 201 219 224 225 228 217 214 215 208 204 204 208 212 211 210 209 210 212 210 207 207
331 331 331 334 332 330 342 351 355 346 332 324 310 258 277 316 320 329 318 276 264 260 238 221 218 227 221 210 201 201 215 228 228 225 204 198 204 204 210 213 211 221 217 211 215 222 225 211 202 211 216 215 220 220 217 218 220 225 229 231 234 227 230 230 184 164 202 212 210 220 227 228 222 220 217 211 209 206 207 212 213 213 212 211 213 212 210 208
329 330 330 333 333 332 344 16 323 328 330 320 317 282 301 308 314 329 316 270 265 225 171 183 194 202 196 190 188 195 221 228 220 219 202 198 205 206 209 210 211 224 221 216 219 227 224 215 208 209 213 214 218 221 218 218 222 225 219 223 234 235 235 238 210 187 215 218 205 214 226 233 223 219 218 218 217 209 206 211 214 213 214 215 215 213 210 208
326 329 328 328 335 336 336 329 312 321 337 318 297 295 303 301 316 336 292 264 258 178 140 157 179 182 192 191 181 188 225 197 192 203 200 196 201 208 217 209 206 223 226 220 220 220 216 218 216 210 212 212 214 220 217 217 224 228 219 215 224 233 238 242 231 211 216 220 210 214 224 237 233 221 216 218 221 217 210 209 212 214 215 216 219 218 211 208
323 325 325 323 329 333 324 316 314 314 309 302 288 278 292 305 317 320 266 267 240 144 137 151 167 173 187 182 182 191 165 138 173 190 192 195 197 203 218 221 216 215 218 225 224 212 209 218 218 207 211 217 213 216 214 216 224 227 228 224 220 224 234 244 243 225 213 221 220 216 221 233 237 229 222 219 220 220 216 211 208 214 218 216 217 221 215 207
320 322 323 318 319 326 317 310 311 302 283 285 279 266 292 313 304 279 254 260 234 157 148 146 150 172 182 176 192 207 197 184 195 169 177 192 199 205 218 225 228 222 217 228 234 222 209 218 221 209 210 223 217 213 213 218 226 226 231 238 233 224 224 235 243 233 218 223 229 222 219 229 241 231 223 223 221 217 217 214 207 210 218 219 218 225 222 208
317 320 321 315 316 323 316 311 314 305 283 280 270 261 299 301 272 242 233 232 245 194 143 143 161 177 184 180 197 212 213 216 193 155 176 190 197 211 221 222 231 235 222 226 234 239 225 212 219 219 215 222 221 216 218 221 226 227 230 237 239 231 223 227 236 240 234 225 226 226 223 227 239 230 218 223 226 222 217 216 213 207 210 218 218 226 232 219
316 318 317 314 314 312 304 306 310 289 281 283 269 263 279 264 234 238 229 229 278 195 141 157 181 174 184 193 200 200 207 217 189 170 186 187 190 207 214 214 225 231 225 223 224 234 234 214 210 221 218 216 220 220 219 220 221 225 226 229 236 234 230 233 229 230 238 230 220 223 224 226 234 230 218 220 224 222 217 216 224 213 204 213 214 214 228 230
315 315 312 310 305 297 289 283 265 265 275 284 264 251 249 230 224 234 224 111 267 187 167 187 186 176 189 203 208 194 197 211 195 185 192 188 190 199 203 206 201 207 220 219 210 215 228 227 213 214 217 215 219 220 215 213 215 219 220 222 228 224 222 231 225 223 233 236 228 222 223 228 234 233 228 227 226 219 208 210 224 220 202 203 209 205 212 226
317 316 312 307 299 291 287 281 263 262 272 278 253 239 230 233 229 221 218 221 188 147 183 205 189 187 196 205 214 198 194 205 195 193 198 197 200 198 203 210 204 208 218 212 209 205 215 227 218 213 214 211 215 220 212 204 206 211 212 217 222 218 218 222 222 226 229 231 232 229 230 233 232 231 229 226 226 221 209 208 220 227 212 200 202 198 199 220
320 318 313 308 300 290 286 285 274 264 263 247 234 222 219 233 232 217 221 227 229 206 226 219 195 196 204 210 215 200 200 211 198 197 199 199 207 203 201 210 211 216 224 216 215 210 213 221 211 208 207 202 210 221 220 209 208 211 210 218 224 220 221 222 218 223 230 232 231 228 230 233 229 229 225 220 221 222 215 211 215 223 226 216 200 186 190 211
323 321 318 314 306 291 282 283 278 261 231 212 219 220 220 228 226 224 230 229 236 239 229 228 211 205 210 214 220 215 214 218 203 202 207 205 211 209 201 206 210 213 220 220 214 212 222 227 207 204 205 203 207 215 221 221 215 209 210 220 223 214 220 235 232 227 230 236 233 227 227 231 234 230 219 217 221 220 218 218 217 217 222 224 205 188 194 206
326 326 322 310 292 277 265 273 281 236 212 212 222 225 224 230 226 226 234 230 240 244 232 222 215 217 218 210 220 220 211 216 211 203 209 213 215 215 209 202 203 208 213 217 215 212 223 229 208 201 202 207 208 208 216 224 219 199 207 222 220 214 222 238 241 234 233 235 232 231 233 228 229 226 214 216 221 217 220 223 222 224 224 216 205 201 202 205
331 331 324 303 276 251 230 253 290 216 217 224 230 232 230 236 236 238 250 248 247 251 245 232 212 217 225 213 215 210 197 205 218 209 211 215 215 216 215 207 200 205 211 218 227 221 225 234 209 201 204 206 207 210 216 224 227 213 207 217 216 219 226 232 237 232 232 237 233 231 236 232 227 221 209 220 220 209 217 225 223 228 231 217 206 211 209 206
334 329 317 301 254 209 210 248 279 215 223 232 237 242 243 242 238 240 250 254 258 257 250 245 220 213 226 224 218 209 198 199 211 215 217 218 213 208 212 212 201 202 208 215 226 220 219 237 213 204 209 203 197 208 217 219 225 232 230 215 209 218 222 220 228 230 229 236 232 231 238 236 231 221 200 218 223 209 211 222 222 225 230 216 203 209 215 210
334 320 306 281 163 194 238 272 255 225 230 235 238 242 244 248 250 249 251 252 255 253 247 249 241 227 229 232 229 216 206 203 209 216 216 219 217 203 205 210 202 200 203 208 221 226 213 229 228 204 198 191 189 204 216 211 215 228 237 226 212 220 222 218 225 230 233 238 232 231 237 232 232 230 210 215 225 214 212 222 223 226 233 221 201 201 211 211
327 307 288 185 166 240 272 274 246 233 236 238 244 248 242 246 248 248 251 253 255 251 242 244 245 241 237 236 239 234 219 212 213 215 212 214 217 202 199 207 204 200 200 203 214 226 210 206 229 207 184 187 200 204 212 214 204 211 225 226 217 215 221 225 225 222 228 238 236 234 238 232 231 236 224 218 223 218 216 222 218 218 233 232 210 200 202 204
311 292 268 201 193 257 268 262 244 237 243 242 247 253 253 256 253 246 244 244 247 252 250 249 249 249 247 241 240 238 235 229 217 214 216 214 217 212 201 208 210 200 197 201 208 216 214 202 218 217 189 195 214 210 211 219 217 209 212 221 224 218 216 222 223 220 222 233 240 239 243 235 221 231 229 214 219 227 221 221 212 203 218 229 218 205 199 197
294 273 255 234 271 281 269 261 247 238 243 246 249 252 254 259 260 254 248 242 240 241 244 250 252 251 251 249 246 238 239 243 223 213 224 221 216 211 196 202 212 208 199 204 207 207 213 215 216 225 217 209 213 214 213 218 227 227 216 215 224 226 222 221 221 222 223 228 233 237 246 239 216 229 228 200 211 229 221 214 208 200 210 221 230 226 201 184
285 277 279 282 283 270 254 253 253 244 243 248 253 256 255 255 254 252 251 246 242 237 235 240 242 244 247 248 250 245 239 243 232 220 228 230 219 209 193 199 212 213 202 203 205 198 205 225 218 221 237 228 214 215 216 215 221 231 225 216 218 223 227 230 229 226 225 228 227 229 239 234 222 237 235 191 205 228 224 210 201 209 217 220 236 241 200 164
294 287 282 281 269 244 240 246 249 248 248 246 246 247 248 250 251 252 249 245 243 241 240 239 236 237 241 243 246 248 244 240 231 225 228 232 221 208 199 197 208 217 208 201 203 189 190 218 219 210 225 225 212 209 211 209 211 221 227 220 216 221 225 227 230 231 230 230 229 232 237 228 222 237 237 213 203 216 228 222 213 220 224 227 240 238 182 161
299 287 277 270 240 222 236 249 259 266 263 259 255 247 246 247 244 244 248 249 247 247 248 245 241 238 236 237 238 240 243 244 236 227 228 232 225 212 206 195 199 215 211 260 303 214 196 203 211 213 216 211 209 209 205 204 206 213 225 225 220 221 223 221 224 233 233 228 228 235 242 230 218 223 228 228 214 198 212 223 224 226 222 229 243 227 163 181
296 288 283 277 246 230 237 249 266 277 278 281 275 256 253 254 244 242 245 247 244 248 255 251 244 240 233 232 234 233 234 238 239 235 230 230 223 214 214 209 215 220 203 33 314 242 223 211 207 216 225 222 218 218 210 207 212 212 216 224 227 225 223 219 221 231 232 228 230 236 245 244 235 225 220 223 217 201 203 218 231 238 230 224 225 190 155 179
281 274 275 289 286 264 250 248 265 298 308 306 305 273 263 263 262 257 251 249 243 240 248 255 249 244 233 227 230 232 230 231 233 235 234 235 232 222 216 219 223 216 145 339 239 228 245 233 214 213 222 233 239 235 221 216 224 224 215 217 226 228 225 222 223 229 231 232 234 230 231 239 245 244 234 221 211 208 213 226 237 243 242 231 204 166 167 181
267 268 274 286 293 277 266 272 298 324 312 305 308 296 283 275 275 270 262 271 263 240 233 241 244 246 245 236 229 228 228 227 228 230 231 233 236 231 219 217 219 202 179 219 227 217 233 234 221 216 217 226 239 246 240 231 233 236 226 219 223 226 228 229 228 228 228 233 240 231 224 229 235 242 244 238 226 214 207 222 237 233 229 232 218 194 195 193
272 275 281 288 286 277 280 288 297 301 295 295 292 282 281 278 279 276 274 294 293 269 257 246 236 240 245 242 238 232 226 224 226 225 226 229 230 232 227 215 211 203 201 215 217 214 227 230 226 230 227 224 229 238 244 243 242 240 233 228 225 224 228 233 235 234 232 236 242 240 235 233 232 235 239 242 247 242 219 214 228 229 223 231 236 227 221 214
269 281 292 293 287 283 282 281 281 282 276 275 272 268 268 268 270 274 282 297 303 301 311 308 286 280 275 260 247 236 229 230 232 227 224 225 221 222 233 228 211 203 203 211 212 206 213 224 226 235 245 238 231 233 237 240 243 241 238 235 232 228 226 228 233 235 236 237 239 241 241 239 235 235 234 235 243 249 242 220 214 221 224 229 236 238 238 232
261 275 288 290 285 280 281 280 273 268 261 254 254 257 259 260 263 275 293 296 286 285 324 347 330 322 317 294 257 238 242 252 260 259 244 230 222 222 228 230 228 215 202 205 212 203 203 218 221 225 239 240 236 239 239 238 241 242 241 238 236 235 231 229 229 230 234 237 237 238 241 237 235 238 234 230 235 243 248 240 226 222 223 223 229 241 247 243
269 268 263 269 277 272 272 276 270 264 262 256 253 252 255 264 271 279 290 290 281 284 318 347 332 323 315 307 301 305 316 320 314 306 290 257 250 260 253 241 240 240 220 206 209 204 202 212 215 218 231 234 230 237 242 241 240 240 238 237 237 237 236 234 230 227 230 234 235 237 242 240 237 239 237 231 228 233 241 244 241 239 237 236 235 239 249 252